Flag for Canada Weather past 2 weeks in Red Deer, Alberta, Canada

Now
66 °F

Broken clouds.


Feels Like: 66 °F
Forecast: 47 / 69 °F
Wind: 3 mph from East

Location: Red Deer

Current Time: Sep 1, 2015 at 2:27:49 PM

Latest Report: Sep 1, 2015 at 2:00 PM


Visibility: 15 mi

Pressure: 29.70 "Hg (26.87 "Hg at 857m altitude)

Humidity: 37%

Dew point: 39 °F

Location of Red DeerLocation

Historic Weather in Red Deer — Graph

°F

Red Deer temperature yesterday

Maximum temperature yesterday: 72 °F (at 4:00 PM)
Minimum temperature yesterday: 39 °F (at 5:00 AM)
Average temperature yesterday: 55 °F

Past Weeks' High & Low Weather Summary

 TemperatureHumidityPressure
High79 °F (Aug 19, 3:00 PM)100% (Aug 18, 12:00 AM)30.26 "Hg (Aug 18, 12:00 AM)
Low36 °F (Aug 23, 6:00 AM)30% (Aug 19, 3:00 PM)29.47 "Hg (Aug 29, 6:00 PM)
Average57 °F73%29.90 "Hg
* Reported Aug 17 1:00 PM — Sep 1 1:00 PM, Red Deer, Weather by CustomWeather, © 2015

Note: Actual official high and low records may vary slightly from our data, if they occured in-between our weather recording intervals... More about our weather records

Advertising

Red Deer weather history for previous 24 hours

 ConditionsComfort  
Time TempWeatherWind HumidityBarometerVisibility
1:00 PM
Tue, Sep 1
64 °FBroken clouds.3 mph43%29.70 "Hg15 mi
12:00 PM63 °FPartly sunny.6 mph42%29.70 "Hg15 mi
11:00 AM59 °FPartly sunny.9 mph59%29.69 "Hg15 mi
10:00 AM55 °FPartly sunny.5 mph67%29.68 "Hg15 mi
9:00 AM52 °FPassing clouds.6 mph72%29.66 "Hg15 mi
8:00 AM48 °FPassing clouds.5 mph76%29.64 "Hg15 mi
7:00 AM46 °FPassing clouds.9 mph76%29.61 "Hg15 mi
6:00 AM46 °FPassing clouds.9 mph76%29.54 "Hg15 mi
5:00 AM41 °FClear.6 mph87%29.54 "Hg15 mi
4:00 AM46 °FPassing clouds.9 mph82%29.54 "Hg15 mi
3:00 AM46 °FPassing clouds.5 mph82%29.56 "Hg15 mi
2:00 AM45 °FPartly cloudy.8 mph87%29.58 "Hg15 mi
1:00 AM46 °FPartly cloudy.6 mph82%29.59 "Hg15 mi
12:00 AM48 °FPassing clouds.2 mph82%29.62 "Hg15 mi
11:00 PM
Mon, Aug 31
50 °FPassing clouds.3 mph76%29.64 "Hg15 mi
10:00 PM50 °FPassing clouds.7 mph76%29.64 "Hg15 mi
9:00 PM55 °FScattered clouds.10 mph67%29.65 "Hg15 mi
8:00 PM57 °FPartly sunny.8 mph63%29.64 "Hg15 mi
7:00 PM68 °FPartly sunny.5 mph46%29.64 "Hg15 mi
6:00 PM70 °FPartly sunny.5 mph40%29.64 "Hg15 mi
5:00 PM70 °FBroken clouds.2 mph40%29.64 "Hg15 mi
4:00 PM72 °FBroken clouds.9 mph31%29.65 "Hg15 mi
3:00 PM70 °FPartly sunny.6 mph31%29.67 "Hg15 mi
2:00 PM68 °FPartly sunny.7 mph33%29.67 "Hg15 mi
Weather by CustomWeather, © 2015

See weather overviewHow to use our weather pages